Classifica Corto 2009

Classifica percorso corto di Km 90
PosPettoraleCognomeNomeSessoSquadraTempoCategoriaCatPosMedia Km/h
14GALLETTACARMINEMCICLOSPORT TEAM RACING2:31:22.400SEN135,67
2530GIACINTIUMBROMSPOLTORECOM2:31:34.400VET135,63
3669MAESAPIETROMCICLO CLUB GGENTILE2:31:35VET235,62
4826ELEFANTEMARCOMUPJ TARANTO2:31:38.400CAD135,61
5230D'ALONZOLORISMCRAL ANGELINI ABRUZZO2:31:40.400SEN235,60
6786PIZZILUCAMJOLLY MTB2:31:46.600SEN335,58
771BARISANOGIUSEPPEMGIVI PLAST - FARNESE2:31:51.100DEB135,56
8860DI BITONTOMASSIMOMBIKE PLANET - CICLOAMATORI LUCERA2:32:13.500VET335,48
9801CIAVATTELLAJONATANMBICI SPORT ORTONA2:32:13.600JUN135,48
10804SPERATIGIANLUCAMBICI SPORT ORTONA2:34:36.100SEN434,93
1142GALLACCIOANGELOMVIS CERCAZIENDEIT2:34:41.100CAD234,91
12672MARCELLOANTONELLOMCICLO CLUB GGENTILE2:35:04.300CAD334,82
13748MANCINIERNESTOMTEAM BIKE MORLACCHI2:35:35.300VET434,71
14490IANNELLIPAOLOMASD FLAVIO CARNOSA2:36:09.500SEN534,58
15827CEROLICRISTIANMBICIMANIA FOSSACESIA2:36:09.600CAD434,58
16724ROCCIMILVIOMCRAL ANGELINI ABRUZZO2:36:19.100VET534,55
17815MALANDRAVALERIOMIL PEDALE 2009 CASALINCONTRADA2:36:20.500CAD534,54
18187DI GENNAROGIOVANNIMGS SIPONTINO2:39:03.400VET633,95
19859DE PALMAMASSIMILIANOMBIKE PLANET - CICLOAMATORI LUCERA2:39:05.100SEN633,94
20719BERARDICRISTIANMDE PANFILIS SPORT2:39:16.100JUN233,91
21400IACOBONIDANIELEMGS FERENTINO BIKE2:40:52.700SEN733,57
22488CLEMENTEPASQUALEMTEAM CORSE BDM LUCERA2:40:52.900GEN133,57
2370ORAZIJURIMGIVI PLAST - FARNESE2:40:54.700CAD633,56
24684DI LISIOGENNAROMMONTENERO BIKE2:40:56.200VET733,55
25802DI VONAANTONIOMBICI SPORT ORTONA2:40:56.500JUN333,55
2659CETERAIVANMGIVI PLAST - FARNESE2:40:59.300JUN433,54
27211LANZAMARIOMFREE BIKE TEAM FOGGIA2:41:04.900VET833,53
28673DI CENCIONINOMCICLO CLUB GGENTILE2:41:05.200VET933,52
29597FILIPPONEALESSANDROMCEPAGATTI CYCLING2:41:06.800SEN833,52
30839BERGAMASCOLEONARDOMGS AMATORI FRENTANIA2:41:07.900VET1033,52
3157RAIMONDILUCIOMGS COLOSSEUM 20002:41:08.200GEN233,51
32666DELFINOGINOMPEDALE SULMONESE2:41:10.900VET1133,51
33854MORETTINICOLAMCICLISTICA CASALBORDINO2:41:15.300VET1233,49
34657DI BATTISTAPACIFICOMGLM NEPA TEAM2:41:17.500SEN933,48
35683BUCCIMARIO VITALEMMONTENERO BIKE2:41:20.200GEN333,47
36287BALDIIVANMGS CRECCHIO FARNESE VINI2:41:22.500JUN533,46
37738RECCHIADANIELEMCRAL ANGELINI ABRUZZO2:41:22.600VET1333,46
38876PANTALEOMAURIZIOMNATURABRUZZO PASSIONE CICLISMO2:41:31.300JUN633,43
39662PANACCIORAIMONDOMDEVIL BIKE PESCARA2:41:35.900VET1433,42
40695LA PESCARAALDOMCAGNANO BIKE2:41:37.500SEN1033,41
41844D'ANTONIOGRAZIANOMSECURITY CA2:41:39.500VET1533,41
42838DI TULLIOMICHELEMDI TIZIO LORENZO SPORT2:41:41.200SGA133,40
43189BALASCOANTONIOMCICLO CLUB CAMPOBASSO2:41:53.500VET1633,36
44837COLLALTOANDREAMCAPRARA2:42:00SEN1133,33
45805ZAPPACOSTATOMMASOMBICI SPORT ORTONA2:42:07.600SEN1233,31
46737CAPUNIEMMANUELMCRAL ANGELINI ABRUZZO2:42:43.100SEN1333,19
47552TRIVARELLIDAMIANOMCANTINA TOLLO2:46:27.100JUN732,44
48100FORMICHETTIMAURIZIOMBROKER CONSULT2:46:31.100GEN432,43
49428DELL'ERNIAGIUSEPPEMPOLISPORTIVA PICENUM2:47:13.200VET1732,29
50762RAGONESEANTONIOMGS CICLOMANIA 20072:47:15.800CAD732,29
51835L'ERARIOPIETROMGS COLOSSEUM 20002:47:15.900SGA232,29
52697BOCALEELVIOMCAGNANO BIKE2:47:22.300VET1832,26
53751PERPETUINICARLOMTEAM BIKE MORLACCHI2:47:30.600VET1932,24
54591CRUGNALEGIOVANNIMCICLO TEAM SORA2:47:32.100SEN1432,23
55806DE MARZOMASSIMOMBICI SPORT ORTONA2:47:34.400SEN1532,23
56516GAMBONEVINCENZOMSPOLTORECOM2:47:36.300SEN1632,22
57663SALVATORELLIGABRIELEMDEVIL BIKE PESCARA2:47:38CAD832,21
58831DI VINCENZOENZOMGS SAMBUCETO2:47:47.300SEN1732,18
59716MOCOGNIVALTERMGS MASCELLI TIVOLI2:47:48.100VET2032,18
6069IACHINIPOMPEOMGIVI PLAST - FARNESE2:47:50GEN532,17
61735CAMPLICRISTIANMCRAL ANGELINI ABRUZZO2:47:54.400CAD932,16
622MANCINIMONIKAFAMICI DELLA BICI JUNIOR2:48:00.100DONB132,14
63727FEDERICOANTONIOMCRAL ANGELINI ABRUZZO2:48:03GEN632,13
6467RENZONIILASIOMGIVI PLAST - FARNESE2:48:12.100VET2132,10
65507MURGANOMATTEOMBROKER CONSULT2:48:14.700SEN1832,10
66586CERRONEMASSIMOMGS DI SANDRO LM2:48:34.400SEN1932,03
6768SANTUCCIONEFIORENTINOMSOGET PESCARA2:48:44.600SEN2032,00
68670FIORENTINOCAMILLOMCICLO CLUB GGENTILE2:48:47.300VET2231,99
69501DI RENZOANTONIOMBROKER CONSULT2:48:58.700SEN2131,96
70482CORNELIOMAURIZIOMCLITERNUM CELANO2:49:05.700VET2331,94
71845SANTAVENERESERGIOMSECURITY CA2:49:13.600VET2431,91
72471COSSUGIANNIMGS VIGILI DEL FUOCO ROMA2:49:19.600SEN2231,89
73864SCIARRAMARCOMGS AMATORI FRENTANIA2:49:20CAD1031,89
74681TRAINIGABRIELEMMONTENERO BIKE2:49:21.900VET2531,89
75458FIORIGIULIOMASD CICLISTICA PICENA2:49:22.900VET2631,88
76537MINCONEMARCOMVELO AVIS TORREVECCHIA2:49:26VET2731,87
77685SECCIAANTONIOMMONTENERO BIKE2:49:38JUN831,83
78843DI TOMMASOROBERTOMSECURITY CA2:49:49.800GEN731,80
79220APRILEVINCENZOMFREE BIKE TEAM FOGGIA2:49:50.800VET2831,80
80596CASCINIFABIOMCEPAGATTI CYCLING2:49:57.600SEN2331,77
81439ROSINILUIGIMD ASCENZO BIKE2:50:00.100SEN2431,76
82702SORGIFRANCESCOMPEDALANDO2:50:01.600SEN2531,76
83704TRONCABERARDINOMTEAM A DE ZAN2:50:03.500VET2931,76
84693DONATACCIOANGELOMCAGNANO BIKE2:50:05.100GEN831,75
85851CAVALLOOMARMINFISSI SANTOFERRARA2:51:18.300SEN2631,52
86732TUTTOPETTOGIANLUCAMCRAL ANGELINI ABRUZZO2:52:34.300SEN2731,29
87479VENDITTIEGIDIOMCLITERNUM CELANO2:52:40.300VET3031,27
88430BRUNIVALERIOMPOLISPORTIVA PICENUM2:52:48.500CAD1131,25
89740TOMAWILLIAMMCRAL ANGELINI ABRUZZO2:52:53.900SEN2831,23
90489PENNESEAURELIOMASD FLAVIO CARNOSA2:52:58.200GEN931,22
91726PERFETTILORISMCRAL ANGELINI ABRUZZO2:53:04.500JUN931,20
92736SANTALUCIALIVIOMCRAL ANGELINI ABRUZZO2:53:05.300GEN1031,20
93176SCHIAZZADANIELEMBROKER CONSULT2:53:24.400GEN1131,14
94511D'ORAZIOBENITOMBROKER CONSULT2:53:26VET3131,14
95190MOLINAROLIVIOMCICLO CLUB CAMPOBASSO2:53:29.500VET3231,13
96577IULIANELLAFRANCOMFONTAMARA ERAMO PAOLO PESCINA2:53:53.500VET3331,06
97822MINCONEAMERICOMINFISSI SANTOFERRARA2:54:09.700VET3431,01
98692DI NAUTADANIELEMCAGNANO BIKE2:54:17.200SEN2930,98
99807GIANCRISTOFORORENATOMBICI SPORT ORTONA2:54:19VET3530,98
100830CERRITELLIRICCARDOMCRAL ANGELINI ABRUZZO2:54:47.700SEN3030,90
101717DI FEBORENATOMINDIVIDUALE PESCARA2:54:52.800SEN3130,88
102163ROGGIAROCCOMASD F MOSER LIBERTAS2:55:42.500CAD1230,73
103398BARBIERIDIEGOMASD RUOTA LIBERA VELOTEAM2:56:28.600VET3630,60
104549RADICAGIUSTINO LIVIOMCANTINA TOLLO2:56:35GEN1230,58
105877CARAFADANTEMGC CAMPOMARINO2:56:44.100SEN3230,55
106874GEMELLIFEDERICOMCAPRARA2:56:54.700JUN1030,53
107701DI SANZAGUIDOMPEDALANDO2:57:01.300JUN1130,51
108752DI BONAVENTURADIEGOMTEAM BIKE MORLACCHI2:57:04.600VET3730,50
109846DI RENZOMARIOMGS CRECCHIO VINI FARNESE2:57:06.900SGB130,49
110415IEZZIANTONELLOMCICLO CLUB TORINO DI SANGRO2:57:21.200JUN1230,45
111803ZAPPACOSTAGIANCARLOMBICI SPORT ORTONA2:57:26.300SEN3330,43
112427PALMAFILIPPOMPOLISPORTIVA PICENUM2:57:29.200GEN1330,43
113873DI CASMIRROPAOLOMGC VALLE SICILIANA2:57:39.900JUN1330,40
114598NEPAALFONSOMGLM NEPA TEAM2:58:03.200VET3830,33
115656MUZISIMONEMGLM NEPA TEAM2:58:04.900SEN3430,33
116668NACCARELLAALESSANDROMCICLO CLUB GGENTILE2:58:12.800VET3930,30
117729D'AGOSTINOCARMINEMCRAL ANGELINI ABRUZZO2:58:15.500VET4030,29
118535SECCIAGIULIANOMVELO AVIS TORREVECCHIA2:58:30.200SGA330,25
119532PONENTEDANTEMVELO AVIS TORREVECCHIA2:58:44.800GEN1430,21
120879ANTONELLICLAUDIOMGS CRECCHIO VINI FARNESE2:58:50.300SEN3530,20
121517MATRICCIANIMARIOMSPOLTORECOM2:58:58SGA430,17
122567ROSICAALDOMCANTINA TOLLO2:59:00.700GEN1530,17
123408DE GRANDISFRANCESCOMCICLO CLUB TORINO DI SANGRO2:59:07.100GEN1630,15
124512DI NARDOPASQUALEMAS ROMA CICLISMO2:59:10.200GEN1730,14
125215STIPANIDAVIDEMFREE BIKE TEAM FOGGIA2:59:28.100VET4130,09
126781MARCHESANIGABRIELEMFARA BIKE2:59:42SEN3630,05
127548DI MASCIODONATO ENNIOMCANTINA TOLLO3:00:16.100GEN1829,96
128440CIARROCHIROBERTOMD ASCENZO BIKE3:00:20.500SEN3729,94
129783MARELLIMARCOMLA MAGLIA ROSA3:00:32VET4229,91
130798DE RITISMARCOMAMICINBICI3:01:50.200GEN1929,70
131772SALVATORELLINICOLINOMUNIVERSITA D ANNUNZIO3:01:54.600SGA529,69
132487PRENCIPEARMANDOMCLICLI SPANO MANFREDONIA3:01:59.500VET4329,67
133880DI NARDONICOLAMGS CRECCHIO VINI FARNESE3:02:09.100SEN3829,65
134536PRIMITERRAENZOMVELO AVIS TORREVECCHIA3:02:12.400GEN2029,64
135465DI FORTUNATOLAUROMGC CAMPOMARINO3:02:14.300VET4429,63
136872CONIGLIOMAXIMILIENMSS FLORENTIA3:02:25.500SEN3929,60
137811D'AMARIOLORETOMSANGRO AVENTINO ARCHI3:02:38.600JUN1429,57
138478RAMUNNOGIUSEPPEMCLITERNUM CELANO3:03:01.500VET4529,51
139483NOVEMBRINIMARIOMCLITERNUM CELANO3:03:01.600SGA629,51
140834DE SANTISFABRIZIOMCICLYNG TEAM GRAZIANI3:03:03.400SEN4029,50
141791MATUROCARLOMAMICINBICI3:03:34.800SGA729,42
142828TRANCHESEDOMENICOMBOEMIO BIKE RACING3:03:35.700GEN2129,41
143541BARBETTAMASSIMOMVELO AVIS TORREVECCHIA3:03:59.200VET4629,35
144570TUDINOCRISTIANMSC VENAFRO3:04:18CAD1329,30
145850SANTOFERRARADANTEMINFISSI SANTOFERRARA3:04:51.900SGA829,21
146594LOLLICLAUDIOMCONFETTI PELINO SULMONA3:04:53.500VET4729,21
147464CAROPPIMICHELEMMONDO BICI SAN SEVERO3:04:59.700JUN1529,19
148690AGOSTINIATTILIOMCICLI FALGIANI MARCO PANTANI3:05:05.200GEN2229,18
149723D'ONOFRIOLUCIANOMCRAL ANGELINI ABRUZZO3:05:15VET4829,15
150708DI GIOVANNIGABRIELEMAMICI DELLA BICI3:05:20.800VET4929,14
151459CIANNAVEIOSVALDOMASD CICLISTICA PICENA3:05:26.600GEN2329,12
152829DEL ROSARIOPASQUALEMTEATE BIKE3:05:29.500VET5029,11
153500DI PAOLOLUCIANOMBROKER CONSULT3:05:29.600GEN2429,11
154731FERMIBRUNOMCRAL ANGELINI ABRUZZO3:05:59.400SEN4129,03
155700SCORRETTIDANIELEMPEDALANDO3:06:00.700JUN1629,03
156519MARINIGIUSEPPEMGS VIGILI DEL FUOCO ROMA3:06:18.700VET5128,99
157191PADUANOGIANFRANCOMCICLO CLUB CAMPOBASSO3:07:31.600VET5228,80
158913QUITADAMOCELESTINOMCICLOAMATORI VIESTE3:07:51.100CT128,75
159502ZAPPACOSTAGIOVANNIMBROKER CONSULT3:07:53.400SGB228,74
160436DI VALENTINOANTONIOMD ASCENZO BIKE3:07:53.800SGA928,74
161869PELLICCIOTTAGIULIOMNEW TEAM SANGRO3:08:08.800VET5328,70
162162FRASCAGIUSEPPEMASD F MOSER LIBERTAS3:08:10.300VET5428,70
163419MARULLIFERNANDOMASD TORRESE3:08:17.900SGB328,68
164914CAVALLUCCIGIUSEPPEMGS DE CECCO MARIO3:08:21.800CT228,67
165750BISCOTTIENRICOMTEAM BIKE MORLACCHI3:08:54.900JUN1728,59
166494FERRETTIMATTEOMASD FLAVIO CARNOSA3:09:10.600DEB228,55
167706PARISPAOLOMAMICI DELLA BICI3:09:13.400JUN1828,54
168925PETTINELLABRUNOMAMICI DELLA BICI3:09:13.500CT328,54
169444D'ORAZIOEMILIOMTEAM PRO BIKE3:09:17.600VET5528,53
170477GUERRAANGELOMCLITERNUM CELANO3:09:52.200GEN2528,44
171301CAMPANELLAANTONIOMCYCLE PROMOZIONE CICLISMO3:10:07JUN1928,40
172443VILLANIEZIOMD ASCENZO BIKE3:10:53.100VET5628,29
173773VEGGETTIPAOLOMUNIVERSITA D ANNUNZIO3:10:58.300VET5728,28
174495MAMBELLAMASSIMOMASD FLAVIO CARNOSA3:11:01.100VET5828,27
175908ZULLIENNIOMCYCLE PROMOZIONE CICLISMO3:11:22.900CT428,22
176833CARINCIGIUSEPPEMCICLYNG TEAM GRAZIANI3:11:23.100SEN4228,22
177936PELLEGRININUNZIATOMDI TIZIO LORENZO SPORT3:11:29.900CT528,20
178814PAOLINICLAUDIOMRISTORANTE LA RETE3:11:32VET5928,19
179832GRAZIANIROCCO ALTEROMCICLYNG TEAM GRAZIANI3:11:47.500SGB428,16
180484SARACENIPALMINOMBICIMANIA FOSSACESIA3:12:03GEN2628,12
181787CANNONEANGELOMDILETTANTISTICA PESCARA3:12:05.600SEN4328,11
182707DI GIOVANNIDARIOMAMICI DELLA BICI3:12:08.300VET6028,11
183161MAGGIMICHELEMASD F MOSER LIBERTAS3:12:13.300VET6128,09
184866CERONEANGELOMCLITERNUM CELANO3:12:51.800VET6228,00
185406GIANSANTEGIANCARLOMMARANO ARAN3:12:56.300GEN2727,99
186481BELVISOMARIANOMCLITERNUM CELANO3:13:02.400JUN2027,97
187520DE LEONARDISTIZIANOMSS SPOLTORE 19613:14:23.100GEN2827,78
188730DE LEONIBUSMAURIZIOMCRAL ANGELINI ABRUZZO3:14:24.800SEN4427,78
189157MARTIREVINCENZOMASD F MOSER LIBERTAS3:15:03.600VET6327,69
190677DE BERARDINISANTONELLOMGS TORTORETO3:15:15.100GEN2927,66
191782D'ANGELOVINCENZOMFARA BIKE3:15:51.800JUN2127,57
192849TALUCCINANDOMINFISSI SANTOFERRARA3:16:07.900GEN3027,53
193538MARTINELLIMAURIZIOMVELO AVIS TORREVECCHIA3:18:14.900VET6427,24
194712TEDESCOSALVATOREMAMICI DELLA BICI3:18:19.200SGB527,23
195778STENTAFABIOMFARA BIKE3:18:23.800JUN2227,22
196775DEL FEDERICOLORENZOMUNIVERSITA D ANNUNZIO3:18:41.600VET6527,18
197545DI GHIONNONINOMCANTINA TOLLO3:18:48.300SGA1027,16
198404COLASANTIANTONIOMAPD CIOCIARIA BIKE3:18:53.800SGA1127,15
199696BOCALEALDOMCAGNANO BIKE3:18:55.500SEN4527,15
200688FARNESIGIORGIOMCICLI FALGIANI MARCO PANTANI3:19:25.400GEN3127,08
201795PATACCAGIANFRANCOMAMICINBICI3:19:49.100VET6627,02
202431MICOZZIADELIOMPOLISPORTIVA PICENUM3:19:49.200GEN3227,02
203944SFERRELLAANTONIOMSS SPOLTORE 19613:20:24.400CT626,95
204943SCURTIALFREDOMSS SPOLTORE 19613:20:25.800CT726,94
205417D'ALESSANDROMASSIMOMIL PEDALE KLINDEX3:20:30.400GEN3326,93
206525D'ORAZIOORAZIOMSS SPOLTORE 19613:21:12.900GEN3426,84
207504DI GIANDOMENICOVINCENZOMBROKER CONSULT3:21:18.500SGA1226,83
208414IEZZIALDOMCICLO CLUB TORINO DI SANGRO3:21:19.900GEN3526,82
209468SABURROMICHELEMGC CAMPOMARINO3:21:21.400VET6726,82
210437MORETTIRENATOMD ASCENZO BIKE3:21:29.200SEN4626,80
211164POMPILIOGIOVANNIMTEAM CICLISTICO PADRE PIO3:21:32SGA1326,79
212757MORELLIANTONIOMGS CICLOMANIA 20073:21:36.600GEN3626,79
213551CAVUTOGIOVANNIMCANTINA TOLLO3:21:42.900SGA1426,77
214508DIODATOBRUNOMBROKER CONSULT3:21:47.500SGB626,76
215593DI FILIPPOSILVANOMINDIVIDUALE3:21:48.900GEN3726,76
216531TROILOFABIOMSS SPOLTORE 19613:22:12.200SEN4726,71
217434D'ANNUNZIOOTTAVIOMD ASCENZO BIKE3:22:29.600VET6826,67
218422BOVARAROBERTOMPOLISPORTIVA PICENUM3:24:17.700GEN3826,43
219426DE TOMANICOLAMPOLISPORTIVA PICENUM3:24:18.300VET6926,43
220423BAIOCCHISTEFANOMPOLISPORTIVA PICENUM3:24:30.800VET7026,41
221429BRUNIGIUSEPPEMPOLISPORTIVA PICENUM3:24:56.100GEN3926,35
222840APPUGLIESEANTONINOMCICLOPAZZI3:24:59.900SEN4826,34
223218TORRACOGIANLUCAMFREE BIKE TEAM FOGGIA3:25:06.100SEN4926,33
224216TORRACOGERARDOMFREE BIKE TEAM FOGGIA3:25:15.800SEN5026,31
225744MARRONEMAURIZIOMEURO BIKE3:25:34.200VET7126,27
226467LA TORREROCCOMGC CAMPOMARINO3:25:37.100JUN2326,26
227438RICCIGASPAREMD ASCENZO BIKE3:25:54.200GEN4026,23
228435DI PIETROANTONIOMD ASCENZO BIKE3:25:55.400VET7226,22
229177D'ALESSANDROMARIOMGC MACERONE3:25:57.900SGB726,22
230397PIROZZIADRIANOMBICIMANIA TERNI3:25:59.200VET7326,22
231718CIANELLAMARIOMCLITERNUM CELANO3:26:07.500SEN5126,20
232722CARLESIGABRIELEMGS FIDAS PESCARA3:26:16.900GEN4126,18
233576SBARDELLAANTONIOMFONTAMARA ERAMO PAOLO PESCINA3:26:18VET7426,18
234733BRENDASERGIOMCRAL ANGELINI ABRUZZO3:26:22.800GEN4226,17
235432IACOBONIMAURIZIOMPOLISPORTIVA PICENUM3:26:24.800NC126,16
236480FEGATILLIAGOSTINOMCLITERNUM CELANO3:26:50.700SEN5226,11
237777MARMONTIROBERTOMUNIVERSITA D ANNUNZIO3:26:59GEN4326,09
238792MENNAFRANCOMAMICINBICI3:27:09.800VET7526,07
239734JEPSONSTEVENMCRAL ANGELINI ABRUZZO3:27:21.900GEN4426,04
240932IMBASTAROGIUSEPPEMCRAL ANGELINI ABRUZZO3:27:35.200CT826,01
241585DE LISICARLOMGS DI SANDRO LM3:28:07.100SGA1525,95
242785DEL CIOTTONICOLINOMAURORA3:29:09.700SGA1625,82
243691GASPARIFRANCESCOMCICLI FALGIANI MARCO PANTANI3:30:07.500GEN4525,70
244403D'ETTORREMARIOMGS FIDAS PESCARA3:32:16.900VET7625,44
245401BIAGIMAURIZIOMCSI FROSINONE3:32:19.500SEN5325,43
246694DANCRETIMATTEOMCAGNANO BIKE3:33:02.800SEN5425,35
247687CAMELINAZZARENOMCICLI FALGIANI MARCO PANTANI3:34:00.200GEN4625,23
24840NEROFABRIZIAFAMICI DELLA BICI3:34:36.300DONB225,16
249453DI PIETROGIUSEPPEMMARCO PANTANI DEI 5 REALI SITI3:34:39SEN5525,16
250505NERONIERNESTINOMBROKER CONSULT3:34:48.600VET7725,14
251470COSTANTINIGIUSEPPEMINTESA BIKE3:34:50SGB825,14
252448SCIUSCIOGIUSEPPEMMARCO PANTANI DEI 5 REALI SITI3:35:48.700GEN4725,02
253510GENOBILETONINOMBROKER CONSULT3:37:48.600GEN4824,79
254447LAROCCHIAVITOMMARCO PANTANI DEI 5 REALI SITI3:38:05VET7824,76
255407MARCHIONNEVINCENZOMPESCARA TEAM3:38:07SGB924,76
256442CINGOLIARNALDOMD ASCENZO BIKE3:38:21.200SEN5624,73
257812MINCARINIPAOLOMINDIVIDUALE PESCARA3:38:45.500SGB1024,69
258942D'INNOCENTECLAUDIOMRISTORANTE LA RETE3:39:07.400CT924,64
259178LIBERATOREPIETROMGC MACERONE3:39:11.700GEN4924,64
260799MARCANTONIOFELICIANOMAMICINBICI3:39:58.700VET7924,55
261912DI CRISCIOENZOMMONDO BICI SAN SEVERO3:40:16.900CT1024,52
262848SOLINASATTILIOMAURORA3:40:29.500GEN5024,49
263868MARASCIAREMOMDI TIZIO LORENZO SPORT3:40:29.600GEN5124,49
264721CONTROGUERRACAMILLOMGS FIDAS PESCARA3:40:49.900VET8024,45
265911MANCINIFRANCESCOMASD TEATE BIKE3:42:09.200CT1124,31
266506VALLESEROCCOMBROKER CONSULT3:42:09.300SGB1124,31
267524DE IULIISIVOMSS SPOLTORE 19613:42:33.200GEN5224,26
268771CICCONEIVANMGS CICLOMANIA 20073:43:04.200VET8124,21
269452MAGGIROCCOMMARCO PANTANI DEI 5 REALI SITI3:43:22.800VET8224,18
270952DI MECOANTONIOMAMICI DELLA BICI3:43:24.700CT1224,17
271441STANCHIERIDOMENICOMD ASCENZO BIKE3:43:33.900VET8324,16
272935AMBROSINIOLIVIEROMGS CICLOMANIA 20073:45:56.300CT1323,90
273658PANTOLIDONALDMGLM NEPA TEAM3:46:09.800VET8423,88
274391FORCHETTIFRANCOMCYCLE PROMOZIONE CICLISMO3:46:25.700GEN5323,85
275526D'ERCOLEVITALIANOMSS SPOLTORE 19613:47:15.700VET8523,76
276930DI BERARDINOANGELOMCRAL ANGELINI ABRUZZO3:47:21.900CT1423,75
277466DI LABBIOANTONIOMGC CAMPOMARINO3:48:23.700VET8623,64
278521SERICOLAOTTAVIO ANTONIOMSS SPOLTORE 19613:48:48.400VET8723,60
279450TARATETAMAURIZIOMMARCO PANTANI DEI 5 REALI SITI3:49:00.600VET8823,58
280756DI MUZIOALESSIOMGS CICLOMANIA 20073:49:28VET8923,53
281905NOVELLIFRANCESCOMASD F MOSER LIBERTAS3:50:32CT1523,42
282412FERRANTEGIOVANNIMCICLO CLUB TORINO DI SANGRO3:52:00.300VET9023,28
283529SCURTIANTONIOMSS SPOLTORE 19613:52:03.200SEN5723,27
284813GIANSANTEMARCOMRISTORANTE LA RETE3:52:04.400SEN5823,27
285454VITULANOGIUSEPPEMMARCO PANTANI DEI 5 REALI SITI3:53:04.900SGA1723,17
286411FERRANTEDANIELEMCICLO CLUB TORINO DI SANGRO3:53:27.800SEN5923,13
287709CONTIVINCENZOMAMICI DELLA BICI3:54:22.400VET9123,04
288710LONGOTIZIANOMAMICI DELLA BICI3:54:24.400GEN5423,04
289927SARACINOVINCENZOMAMICI DELLA BICI3:54:26.200CT1623,03
290915CUTARELLICESIDIOMBROKER CONSULT3:54:48.800CT1723,00
291909BOCCASININICOLAMASD TEATE BIKE3:54:48.900CT1823,00
292451CASSANELLILUCIANOMMARCO PANTANI DEI 5 REALI SITI3:55:00.200SEN6022,98
293901GASBARROFRANCESCOMASD F MOSER LIBERTAS3:55:14CT1922,96
294394BALESTRIERINUNZIOMASD F MOSER LIBERTAS3:55:32.400CAD1422,93
295904QUARTICELLIGIUSEPPEMASD F MOSER LIBERTAS3:56:13.600CT2022,86
296486RICCIDANILOMGS ALBA ADRIATICA3:56:15.800SEN6122,86
297153NIRORAFFAELEMASD F MOSER LIBERTAS3:56:23.200SGA1822,84
298900LEGGIERIENZAFASD F MOSER LIBERTAS3:56:26.500CT2122,84
299499DI DIODATOORAZIOMPEDALE MASCIARELLI3:56:28.400SGB1222,84
300396CANNELLAMAURIZIOMGS FIDAS PESCARA3:57:31.500VET9222,74
301906DE ANGELISGERARDOMASD F MOSER LIBERTAS3:58:13.100CT2222,67
302784PAOLINIWALTERMAURORA4:00:29.900SGB1322,45
303392MARZOMICHELEMASD F MOSER LIBERTAS4:01:01.700JUN2422,41
304410FANTINIMASSIMOMCICLO CLUB TORINO DI SANGRO4:01:46SEN6222,34
305743DI CRISCIOENIO SANDROMEURO BIKE4:01:55.900GEN5522,32
306745CIMINIANTONIOMSCD A FANTINI4:02:07GEN5622,30
307746DI SANTOLUIGIMSCD A FANTINI4:02:20.600VET9322,28
308797VOLPEBENIAMINOMAMICINBICI4:04:08.300GEN5722,12
309950MAMBELLAREMOMGS FONTANELLE ALTA4:05:03.300CT2322,04
310871PALMAANTONIOMSS FLORENTIA4:13:31.400GEN5821,30
311902LIBERTISTEFANOMASD F MOSER LIBERTAS4:13:42.600CT2421,28
312416LORETOANGELOMCICLO CLUB TORINO DI SANGRO4:14:18.300SEN6321,23
313528POMPAANTONIOMSS SPOLTORE 19614:14:40.700SGA1921,20
314774D'ADAMIONICOLAMUNIVERSITA D ANNUNZIO4:15:01VET9421,18
315413FERRANTELUIGIMCICLO CLUB TORINO DI SANGRO4:15:57.500SEN6421,10
316449NOVELLIFRANCESCOMMARCO PANTANI DEI 5 REALI SITI4:17:45.800VET9520,95
317945PINTICAMILLOMFARA BIKE4:17:48.500CT2520,95
318217TORRACOMICHELEMFREE BIKE TEAM FOGGIA4:18:01.600SGB1420,93
319509PAOLINIPALMIROMBROKER CONSULT4:21:42.600GEN5920,63
320910CALABRESETEODOROMASD TEATE BIKE4:27:06.900CT2620,22
321907INGRAVALLOPASQUALEMASD F MOSER LIBERTAS4:28:25.900CT2720,12
32245TIERIELGAFGS FIDAS PESCARA4:28:28.200DONB320,11
323476IAFRATEBRUNOMASD VELO CLUB SORA4:35:02.500GEN6019,63
324934CASTALDIGIOVANNIMGS CICLOMANIA 20074:41:09.900CT2819,21
325758MERCIAROEMILIOMGS CICLOMANIA 20074:42:35.100VET9619,11
326720POMPEIFRANCOMGS FIDAS PESCARA4:46:42VET9718,84